Starlink 3374

operational
NORAD ID: 51112 Int'l Des: 2022-005 Owner: SPXS Country: US Constellation: starlink
LEOCIRCULAR

关于 Starlink 3374

正在加载描述...

实时位置

正在加载3D地球...

即将过境

高度历史

Altitude vs Time

uPlot chart will show altitude changes over time

两行轨道根数

1 51112U 22005J 25303.99827059 -.00001603 00000-0 -82679-4 0 9999
2 51112 53.2169 151.3030 0000957 81.1371 278.9730 15.08829143209304
Epoch: Oct 30, 2025 • Age: 19 hours

当前状态

高度 551.1 km
速度 7.59 km/s
星下点 -34.40°S, 154.26°E
发射日期 Jan 19, 2022
运行时间 3.7 years
类型 internet

技术详情

分类 Payload
质量 297.00 kg
干质量 275.00 kg
总质量 297.00 kg
长度 0.20 m
直径 2.80 m
跨度 9.00 m
形状 Box + pan
制造商 SPXS
平台类型 Starlink
阶段状态 In Orbit
所有者/国家 SPXS/US

大型星座

Loading constellations...